Time,TemperatureF,DewpointF,PressureIn,WindDirection,WindDirectionDegrees,WindSpeedMPH,WindSpeedGustMPH,Humidity,HourlyPrecipIn,Conditions,Clouds,dailyrainin,SoftwareType,DateUTC
2013-09-25 00:01:00,77.4,68.5,29.88,SSE,158,0.0,0.4,74,0.00,,,0.27,WUHU216HW,2013-09-25 04:01:00,
2013-09-25 00:02:00,77.4,68.5,29.88,SSE,158,0.2,0.4,74,0.00,,,0.00,WUHU216HW,2013-09-25 04:02:00,
2013-09-25 00:07:00,77.4,68.0,29.88,SSE,158,0.0,0.4,73,0.00,,,0.00,WUHU216HW,2013-09-25 04:07:00,
2013-09-25 00:12:00,77.6,68.2,29.89,NNW,338,0.4,0.4,73,0.00,,,0.00,WUHU216HW,2013-09-25 04:12:00,
2013-09-25 00:18:00,77.4,68.0,29.89,East,90,0.0,0.4,73,0.00,,,0.00,WUHU216HW,2013-09-25 04:18:00,
2013-09-25 00:23:00,77.6,68.2,29.88,East,90,0.2,0.7,73,0.00,,,0.00,WUHU216HW,2013-09-25 04:23:00,
2013-09-25 00:28:00,77.6,68.2,29.87,East,90,0.0,0.9,73,0.00,,,0.00,WUHU216HW,2013-09-25 04:28:00,
2013-09-25 00:33:00,77.4,67.7,29.88,East,90,0.0,0.9,72,0.00,,,0.00,WUHU216HW,2013-09-25 04:33:00,
2013-09-25 00:38:00,77.4,67.7,29.88,SE,135,0.0,0.4,72,0.00,,,0.00,WUHU216HW,2013-09-25 04:38:00,
2013-09-25 00:43:00,77.4,67.7,29.87,SE,135,0.0,0.2,72,0.00,,,0.00,WUHU216HW,2013-09-25 04:43:00,
2013-09-25 00:48:00,77.4,67.7,29.87,SE,135,0.0,0.0,72,0.00,,,0.00,WUHU216HW,2013-09-25 04:48:00,
2013-09-25 00:53:00,77.4,67.7,29.87,SE,135,0.0,0.0,72,0.00,,,0.00,WUHU216HW,2013-09-25 04:53:00,
2013-09-25 00:58:00,77.4,67.7,29.87,SE,135,0.0,0.2,72,0.00,,,0.00,WUHU216HW,2013-09-25 04:58:00,
2013-09-25 01:03:00,77.4,67.7,29.87,SE,135,0.0,0.2,72,0.00,,,0.00,WUHU216HW,2013-09-25 05:03:00,
2013-09-25 01:09:00,77.4,67.7,29.87,SE,135,0.0,0.0,72,0.00,,,0.00,WUHU216HW,2013-09-25 05:09:00,
2013-09-25 01:14:00,77.4,67.7,29.87,SE,135,0.0,0.0,72,0.00,,,0.00,WUHU216HW,2013-09-25 05:14:00,
2013-09-25 01:19:00,77.4,67.3,29.86,SE,135,0.0,0.0,71,0.00,,,0.00,WUHU216HW,2013-09-25 05:19:00,
2013-09-25 01:24:00,77.4,67.3,29.86,SE,135,0.0,0.0,71,0.00,,,0.00,WUHU216HW,2013-09-25 05:24:00,
2013-09-25 01:29:00,77.4,67.3,29.86,SE,135,0.0,0.0,71,0.00,,,0.00,WUHU216HW,2013-09-25 05:29:00,
2013-09-25 01:34:00,77.4,67.3,29.85,SE,135,0.0,0.2,71,0.00,,,0.00,WUHU216HW,2013-09-25 05:34:00,
2013-09-25 01:39:00,77.4,67.3,29.85,SE,135,0.0,0.2,71,0.00,,,0.00,WUHU216HW,2013-09-25 05:39:00,
2013-09-25 01:44:00,77.4,67.3,29.85,SE,135,0.0,0.0,71,0.00,,,0.00,WUHU216HW,2013-09-25 05:44:00,
2013-09-25 01:49:00,77.4,67.3,29.85,SE,135,0.0,0.0,71,0.00,,,0.00,WUHU216HW,2013-09-25 05:49:00,
2013-09-25 01:54:00,77.2,67.1,29.85,SE,135,0.2,0.2,71,0.00,,,0.00,WUHU216HW,2013-09-25 05:54:00,
2013-09-25 01:59:00,77.2,67.5,29.85,SE,135,0.0,0.4,72,0.00,,,0.00,WUHU216HW,2013-09-25 05:59:00,
2013-09-25 02:05:00,77.2,67.1,29.85,SE,135,0.0,0.4,71,0.00,,,0.00,WUHU216HW,2013-09-25 06:05:00,
2013-09-25 02:10:00,77.2,67.1,29.85,SE,135,0.0,0.0,71,0.00,,,0.00,WUHU216HW,2013-09-25 06:10:00,
2013-09-25 02:15:00,77.2,67.1,29.85,SE,135,0.0,0.0,71,0.00,,,0.00,WUHU216HW,2013-09-25 06:15:00,
2013-09-25 02:20:00,77.2,67.1,29.84,SE,135,0.0,0.0,71,0.00,,,0.00,WUHU216HW,2013-09-25 06:20:00,
2013-09-25 02:25:00,77.0,67.0,29.84,SE,135,0.0,0.2,71,0.00,,,0.00,WUHU216HW,2013-09-25 06:25:00,
2013-09-25 02:30:00,77.0,67.0,29.84,SE,135,0.4,0.4,71,0.00,,,0.00,WUHU216HW,2013-09-25 06:30:00,
2013-09-25 02:35:00,77.0,67.3,29.84,SE,135,0.0,0.4,72,0.00,,,0.00,WUHU216HW,2013-09-25 06:35:00,
2013-09-25 02:40:00,77.0,67.3,29.84,SE,135,0.0,0.4,72,0.00,,,0.00,WUHU216HW,2013-09-25 06:40:00,
2013-09-25 02:45:00,77.0,67.3,29.84,SE,135,0.4,0.4,72,0.00,,,0.00,WUHU216HW,2013-09-25 06:45:00,
2013-09-25 02:50:00,77.0,67.3,29.84,SE,135,0.4,0.4,72,0.00,,,0.00,WUHU216HW,2013-09-25 06:50:00,
2013-09-25 02:55:00,77.0,67.3,29.84,SE,135,0.0,0.4,72,0.00,,,0.00,WUHU216HW,2013-09-25 06:55:00,
2013-09-25 03:00:00,77.0,67.8,29.84,SSE,158,0.0,0.9,73,0.00,,,0.00,WUHU216HW,2013-09-25 07:00:00,
2013-09-25 03:06:00,77.0,67.3,29.84,SSE,158,0.4,0.9,72,0.00,,,0.00,WUHU216HW,2013-09-25 07:06:00,
2013-09-25 03:11:00,77.0,67.3,29.84,SSE,158,0.0,0.4,72,0.01,,,0.01,WUHU216HW,2013-09-25 07:11:00,
2013-09-25 03:16:00,77.0,67.3,29.84,SSE,158,0.0,0.4,72,0.01,,,0.01,WUHU216HW,2013-09-25 07:16:00,
2013-09-25 03:21:00,77.0,67.3,29.84,SSE,158,0.0,0.4,72,0.01,,,0.01,WUHU216HW,2013-09-25 07:21:00,
2013-09-25 03:26:00,77.0,67.3,29.84,SSE,158,0.0,0.2,72,0.01,,,0.01,WUHU216HW,2013-09-25 07:26:00,
2013-09-25 03:31:00,77.0,67.3,29.84,SSE,158,0.0,0.2,72,0.01,,,0.01,WUHU216HW,2013-09-25 07:31:00,
2013-09-25 03:37:00,77.0,67.3,29.84,SSE,158,0.0,0.0,72,0.01,,,0.01,WUHU216HW,2013-09-25 07:37:00,
2013-09-25 03:42:00,77.0,67.0,29.84,SSE,158,0.0,0.2,71,0.01,,,0.01,WUHU216HW,2013-09-25 07:42:00,
2013-09-25 03:47:00,76.9,67.1,29.83,SSE,158,0.0,0.2,72,0.01,,,0.01,WUHU216HW,2013-09-25 07:47:00,
2013-09-25 03:52:00,76.7,67.0,29.83,SSE,158,0.2,0.4,72,0.01,,,0.01,WUHU216HW,2013-09-25 07:52:00,
2013-09-25 03:58:00,76.9,66.8,29.83,SSE,158,0.0,0.4,71,0.01,,,0.01,WUHU216HW,2013-09-25 07:58:00,
2013-09-25 04:03:00,76.9,66.8,29.83,SSE,158,0.0,0.2,71,0.01,,,0.01,WUHU216HW,2013-09-25 08:03:00,
2013-09-25 04:08:00,76.9,66.8,29.83,SSE,158,0.0,0.2,71,0.00,,,0.01,WUHU216HW,2013-09-25 08:08:00,
2013-09-25 04:14:00,76.9,66.8,29.83,SSE,158,0.0,0.0,71,0.00,,,0.01,WUHU216HW,2013-09-25 08:14:00,
2013-09-25 04:19:00,76.9,66.8,29.83,SSE,158,0.0,0.2,71,0.00,,,0.01,WUHU216HW,2013-09-25 08:19:00,
2013-09-25 04:24:00,76.7,66.6,29.83,SSE,158,0.0,0.2,71,0.00,,,0.01,WUHU216HW,2013-09-25 08:24:00,
2013-09-25 04:29:00,76.9,66.8,29.83,SSE,158,0.0,0.0,71,0.00,,,0.01,WUHU216HW,2013-09-25 08:29:00,
2013-09-25 04:34:00,76.7,66.6,29.82,SSE,158,0.0,0.2,71,0.00,,,0.01,WUHU216HW,2013-09-25 08:34:00,
2013-09-25 04:39:00,76.7,66.6,29.82,SSE,158,0.2,0.4,71,0.00,,,0.01,WUHU216HW,2013-09-25 08:39:00,
2013-09-25 04:44:00,76.7,66.6,29.82,SSE,158,0.4,0.4,71,0.00,,,0.01,WUHU216HW,2013-09-25 08:44:00,
2013-09-25 04:49:00,76.7,66.6,29.82,SSE,158,0.0,0.4,71,0.00,,,0.01,WUHU216HW,2013-09-25 08:49:00,
2013-09-25 04:54:00,76.7,66.6,29.82,SSE,158,0.0,0.2,71,0.00,,,0.01,WUHU216HW,2013-09-25 08:54:00,
2013-09-25 04:59:00,76.7,66.6,29.82,SSE,158,0.0,0.2,71,0.00,,,0.01,WUHU216HW,2013-09-25 08:59:00,
2013-09-25 05:04:00,76.7,66.6,29.82,SSE,158,0.0,0.0,71,0.00,,,0.01,WUHU216HW,2013-09-25 09:04:00,
2013-09-25 05:10:00,76.7,66.2,29.83,SSE,158,0.0,0.0,70,0.00,,,0.01,WUHU216HW,2013-09-25 09:10:00,
2013-09-25 05:15:00,76.9,66.4,29.83,SSE,158,0.0,0.0,70,0.00,,,0.01,WUHU216HW,2013-09-25 09:15:00,
2013-09-25 05:20:00,76.9,66.4,29.84,SSE,158,0.0,0.0,70,0.00,,,0.01,WUHU216HW,2013-09-25 09:20:00,
2013-09-25 05:25:00,76.9,66.4,29.84,SSE,158,0.0,0.0,70,0.00,,,0.01,WUHU216HW,2013-09-25 09:25:00,
2013-09-25 05:30:00,76.9,66.4,29.84,SSE,158,0.0,0.0,70,0.00,,,0.01,WUHU216HW,2013-09-25 09:30:00,
2013-09-25 05:35:00,76.9,66.0,29.84,SSE,158,0.0,0.0,69,0.00,,,0.01,WUHU216HW,2013-09-25 09:35:00,
2013-09-25 05:40:00,76.9,66.0,29.84,SSE,158,0.0,0.0,69,0.00,,,0.01,WUHU216HW,2013-09-25 09:40:00,
2013-09-25 05:45:00,76.9,66.0,29.84,SSE,158,0.0,0.0,69,0.00,,,0.01,WUHU216HW,2013-09-25 09:45:00,
2013-09-25 05:48:00,76.9,65.5,29.84,SSE,158,0.0,0.0,68,0.00,,,0.01,WUHU216HW,2013-09-25 09:48:00,
2013-09-25 05:50:00,76.9,65.5,29.84,SSE,158,0.0,0.0,68,0.00,,,0.01,WUHU216HW,2013-09-25 09:50:00,
2013-09-25 05:55:00,76.9,65.5,29.84,SSE,158,0.0,0.0,68,0.00,,,0.01,WUHU216HW,2013-09-25 09:55:00,
2013-09-25 06:01:00,76.9,65.5,29.84,SSE,158,0.0,0.0,68,0.00,,,0.01,WUHU216HW,2013-09-25 10:01:00,
2013-09-25 06:06:00,76.9,65.5,29.84,SSE,158,0.0,0.0,68,0.00,,,0.01,WUHU216HW,2013-09-25 10:06:00,
2013-09-25 06:11:00,76.9,65.5,29.84,SSE,158,0.0,0.0,68,0.00,,,0.01,WUHU216HW,2013-09-25 10:11:00,
2013-09-25 06:16:00,76.9,65.5,29.84,SSE,158,0.0,0.0,68,0.00,,,0.01,WUHU216HW,2013-09-25 10:16:00,
2013-09-25 06:21:00,76.7,65.8,29.84,SSE,158,0.0,0.0,69,0.00,,,0.01,WUHU216HW,2013-09-25 10:21:00,
2013-09-25 06:26:00,76.7,65.8,29.84,SSE,158,0.0,0.0,69,0.00,,,0.01,WUHU216HW,2013-09-25 10:26:00,
2013-09-25 06:31:00,76.7,65.8,29.84,SSE,158,0.2,0.2,69,0.00,,,0.01,WUHU216HW,2013-09-25 10:31:00,
2013-09-25 06:36:00,76.9,66.0,29.84,SSE,158,0.0,0.2,69,0.00,,,0.01,WUHU216HW,2013-09-25 10:36:00,
2013-09-25 06:41:00,77.0,65.7,29.84,SSE,158,0.0,0.2,68,0.00,,,0.01,WUHU216HW,2013-09-25 10:41:00,
2013-09-25 06:47:00,77.0,66.2,29.84,SSE,158,0.0,0.0,69,0.00,,,0.01,WUHU216HW,2013-09-25 10:47:00,
2013-09-25 06:52:00,76.9,66.0,29.84,SSE,158,0.0,0.0,69,0.00,,,0.01,WUHU216HW,2013-09-25 10:52:00,
2013-09-25 06:57:00,77.0,65.7,29.84,SSE,158,0.0,0.0,68,0.00,,,0.01,WUHU216HW,2013-09-25 10:57:00,
2013-09-25 07:02:00,77.0,65.7,29.85,SSE,158,0.0,0.0,68,0.00,,,0.01,WUHU216HW,2013-09-25 11:02:00,
2013-09-25 07:07:00,77.0,65.3,29.84,SSE,158,0.0,0.0,67,0.00,,,0.01,WUHU216HW,2013-09-25 11:07:00,
2013-09-25 07:12:00,77.2,65.4,29.85,SSE,158,0.0,0.0,67,0.00,,,0.01,WUHU216HW,2013-09-25 11:12:00,
2013-09-25 07:17:00,77.2,65.4,29.85,SSE,158,0.0,0.0,67,0.00,,,0.01,WUHU216HW,2013-09-25 11:17:00,
2013-09-25 07:22:00,77.2,65.4,29.85,SSE,158,0.0,0.0,67,0.00,,,0.01,WUHU216HW,2013-09-25 11:22:00,
2013-09-25 07:27:00,77.2,65.4,29.85,SSE,158,0.0,0.0,67,0.00,,,0.01,WUHU216HW,2013-09-25 11:27:00,
2013-09-25 07:32:00,77.0,65.3,29.85,SSE,158,0.0,0.0,67,0.00,,,0.01,WUHU216HW,2013-09-25 11:32:00,
2013-09-25 07:37:00,77.0,65.3,29.85,SSE,158,0.0,0.0,67,0.00,,,0.01,WUHU216HW,2013-09-25 11:37:00,
2013-09-25 07:42:00,77.0,65.3,29.85,SSE,158,0.0,0.4,67,0.00,,,0.01,WUHU216HW,2013-09-25 11:42:00,
2013-09-25 07:47:00,77.0,65.3,29.85,SSE,158,0.0,0.4,67,0.00,,,0.01,WUHU216HW,2013-09-25 11:47:00,
2013-09-25 07:52:00,77.0,65.3,29.85,SSE,158,0.0,0.0,67,0.00,,,0.01,WUHU216HW,2013-09-25 11:52:00,
2013-09-25 07:58:00,76.9,65.1,29.85,SSE,158,0.0,0.0,67,0.00,,,0.01,WUHU216HW,2013-09-25 11:58:00,
2013-09-25 08:03:00,77.2,65.4,29.85,SSE,158,0.0,0.0,67,0.00,,,0.01,WUHU216HW,2013-09-25 12:03:00,
2013-09-25 08:08:00,77.4,65.2,29.85,SE,135,0.9,0.9,66,0.00,,,0.01,WUHU216HW,2013-09-25 12:08:00,
2013-09-25 08:13:00,77.8,65.1,29.85,ESE,113,0.4,0.9,65,0.00,,,0.01,WUHU216HW,2013-09-25 12:13:00,
2013-09-25 08:18:00,77.8,65.5,29.85,ESE,113,0.0,0.4,66,0.00,,,0.01,WUHU216HW,2013-09-25 12:18:00,
2013-09-25 08:23:00,77.4,65.6,29.85,ESE,113,0.0,0.0,67,0.00,,,0.01,WUHU216HW,2013-09-25 12:23:00,
2013-09-25 08:27:00,77.4,65.2,29.85,NNW,338,0.7,0.7,66,0.00,,,0.01,WUHU216HW,2013-09-25 12:27:00,
2013-09-25 08:32:00,77.8,65.5,29.85,WNW,293,2.7,2.7,66,0.00,,,0.01,WUHU216HW,2013-09-25 12:32:00,
2013-09-25 08:37:00,78.1,65.0,29.86,NNW,338,3.4,3.4,64,0.00,,,0.01,WUHU216HW,2013-09-25 12:37:00,
2013-09-25 08:42:00,78.1,65.3,29.86,NW,315,5.1,5.1,65,0.00,,,0.01,WUHU216HW,2013-09-25 12:42:00,
2013-09-25 08:47:00,78.1,65.8,29.87,North,0,1.8,5.1,66,0.00,,,0.01,WUHU216HW,2013-09-25 12:47:00,
2013-09-25 08:52:00,77.9,66.1,29.87,North,0,1.1,2.9,67,0.00,,,0.01,WUHU216HW,2013-09-25 12:52:00,
2013-09-25 08:57:00,77.9,66.1,29.87,NNW,338,1.8,1.8,67,0.00,,,0.01,WUHU216HW,2013-09-25 12:57:00,
2013-09-25 09:02:00,77.9,66.5,29.86,NE,45,1.1,2.0,68,0.00,,,0.01,WUHU216HW,2013-09-25 13:02:00,
2013-09-25 09:07:00,77.9,66.5,29.86,NNW,338,2.7,2.7,68,0.00,,,0.01,WUHU216HW,2013-09-25 13:07:00,
2013-09-25 09:12:00,77.9,67.0,29.87,NNE,23,2.5,2.7,69,0.00,,,0.01,WUHU216HW,2013-09-25 13:12:00,
2013-09-25 09:17:00,77.8,67.2,29.88,NNE,23,2.2,2.9,70,0.00,,,0.01,WUHU216HW,2013-09-25 13:17:00,
2013-09-25 09:22:00,77.9,67.4,29.87,NNW,338,1.8,2.9,70,0.06,,,0.07,WUHU216HW,2013-09-25 13:22:00,
2013-09-25 09:27:00,77.8,67.2,29.88,NNW,338,0.0,2.5,70,0.07,,,0.08,WUHU216HW,2013-09-25 13:27:00,
2013-09-25 09:32:00,77.8,67.2,29.89,NNW,338,2.5,2.5,70,0.08,,,0.08,WUHU216HW,2013-09-25 13:32:00,
2013-09-25 09:38:00,77.8,67.2,29.89,SSE,158,0.4,2.5,70,0.09,,,0.11,WUHU216HW,2013-09-25 13:38:00,
2013-09-25 09:43:00,77.9,67.4,29.89,SE,135,0.4,0.9,70,0.09,,,0.11,WUHU216HW,2013-09-25 13:43:00,
2013-09-25 09:48:00,77.9,67.0,29.89,NE,45,1.8,1.8,69,0.09,,,0.11,WUHU216HW,2013-09-25 13:48:00,
2013-09-25 09:53:00,77.6,67.5,29.88,NE,45,0.7,2.5,71,0.09,,,0.11,WUHU216HW,2013-09-25 13:53:00,
2013-09-25 09:58:00,77.4,67.0,29.88,NE,45,0.4,2.5,70,0.09,,,0.11,WUHU216HW,2013-09-25 13:58:00,
2013-09-25 10:03:00,77.4,67.0,29.87,NE,45,1.8,2.0,70,0.09,,,0.11,WUHU216HW,2013-09-25 14:03:00,
2013-09-25 10:08:00,77.4,67.0,29.88,NW,315,0.0,2.0,70,0.09,,,0.11,WUHU216HW,2013-09-25 14:08:00,
2013-09-25 10:14:00,77.4,66.5,29.88,North,0,1.1,2.0,69,0.09,,,0.11,WUHU216HW,2013-09-25 14:14:00,
2013-09-25 10:19:00,77.9,67.0,29.88,ENE,68,1.3,1.6,69,0.03,,,0.11,WUHU216HW,2013-09-25 14:19:00,
2013-09-25 10:24:00,78.1,66.7,29.88,ENE,68,0.7,1.3,68,0.02,,,0.11,WUHU216HW,2013-09-25 14:24:00,
2013-09-25 10:29:00,78.5,67.5,29.89,SSE,158,1.3,2.2,69,0.02,,,0.11,WUHU216HW,2013-09-25 14:29:00,
2013-09-25 10:34:00,79.0,68.0,29.89,NE,45,0.0,2.2,69,0.00,,,0.11,WUHU216HW,2013-09-25 14:34:00,
2013-09-25 10:40:00,79.4,68.3,29.89,NE,45,0.7,1.1,69,0.00,,,0.11,WUHU216HW,2013-09-25 14:40:00,
2013-09-25 10:45:00,79.7,69.1,29.89,ESE,113,0.4,0.9,70,0.00,,,0.11,WUHU216HW,2013-09-25 14:45:00,
2013-09-25 10:50:00,80.3,70.0,29.89,North,0,0.4,1.1,71,0.00,,,0.11,WUHU216HW,2013-09-25 14:50:00,
2013-09-25 10:55:00,80.6,70.4,29.89,NNW,338,1.6,1.6,71,0.00,,,0.11,WUHU216HW,2013-09-25 14:55:00,
2013-09-25 11:00:00,81.0,71.6,29.89,NE,45,2.7,2.7,73,0.00,,,0.11,WUHU216HW,2013-09-25 15:00:00,
2013-09-25 11:05:00,81.2,72.6,29.89,ENE,68,2.5,3.8,75,0.00,,,0.11,WUHU216HW,2013-09-25 15:05:00,
2013-09-25 11:10:00,81.4,72.7,29.88,NNW,338,0.2,3.8,75,0.00,,,0.11,WUHU216HW,2013-09-25 15:10:00,
2013-09-25 11:15:00,81.7,73.5,29.88,NW,315,1.6,2.9,76,0.00,,,0.11,WUHU216HW,2013-09-25 15:15:00,
2013-09-25 11:20:00,82.3,74.3,29.88,ENE,68,1.8,3.6,77,0.00,,,0.11,WUHU216HW,2013-09-25 15:20:00,
2013-09-25 11:26:00,82.6,74.7,29.89,NNW,338,1.3,3.6,77,0.00,,,0.11,WUHU216HW,2013-09-25 15:26:00,
2013-09-25 11:31:00,83.0,75.1,29.88,SSE,158,0.7,1.8,77,0.00,,,0.11,WUHU216HW,2013-09-25 15:31:00,
2013-09-25 11:36:00,83.3,75.3,29.88,West,270,1.1,1.8,77,0.00,,,0.11,WUHU216HW,2013-09-25 15:36:00,
2013-09-25 11:41:00,83.7,76.2,29.88,North,0,1.8,2.2,78,0.00,,,0.11,WUHU216HW,2013-09-25 15:41:00,
2013-09-25 11:46:00,83.9,76.3,29.88,WNW,293,1.6,2.2,78,0.00,,,0.11,WUHU216HW,2013-09-25 15:46:00,
2013-09-25 11:51:00,84.2,76.6,29.88,WNW,293,2.0,4.5,78,0.00,,,0.11,WUHU216HW,2013-09-25 15:51:00,
2013-09-25 11:56:00,84.2,76.6,29.88,NNW,338,1.8,4.5,78,0.00,,,0.11,WUHU216HW,2013-09-25 15:56:00,
2013-09-25 12:01:00,84.6,77.0,29.88,West,270,2.5,3.6,78,0.00,,,0.11,WUHU216HW,2013-09-25 16:01:00,
2013-09-25 12:06:00,84.8,76.8,29.88,WNW,293,2.7,2.9,77,0.00,,,0.11,WUHU216HW,2013-09-25 16:06:00,
2013-09-25 12:11:00,85.3,77.3,29.87,North,0,2.0,3.4,77,0.00,,,0.11,WUHU216HW,2013-09-25 16:11:00,
2013-09-25 12:16:00,85.5,77.5,29.87,NNW,338,2.5,3.8,77,0.00,,,0.11,WUHU216HW,2013-09-25 16:16:00,
2013-09-25 12:21:00,85.5,77.5,29.87,NNW,338,5.4,5.4,77,0.00,,,0.11,WUHU216HW,2013-09-25 16:21:00,
2013-09-25 12:26:00,85.0,77.0,29.87,WNW,293,6.7,6.7,77,0.00,,,0.11,WUHU216HW,2013-09-25 16:26:00,
2013-09-25 12:32:00,84.2,76.2,29.88,NNW,338,6.0,6.9,77,0.00,,,0.11,WUHU216HW,2013-09-25 16:32:00,
2013-09-25 12:37:00,83.7,76.2,29.88,North,0,6.3,6.9,78,0.00,,,0.11,WUHU216HW,2013-09-25 16:37:00,
2013-09-25 12:42:00,83.2,75.3,29.88,NNW,338,3.1,6.3,77,0.00,,,0.11,WUHU216HW,2013-09-25 16:42:00,
2013-09-25 12:47:00,83.2,75.6,29.88,NW,315,5.4,8.5,78,0.00,,,0.11,WUHU216HW,2013-09-25 16:47:00,
2013-09-25 12:52:00,83.5,76.0,29.88,NNW,338,7.2,8.5,78,0.00,,,0.11,WUHU216HW,2013-09-25 16:52:00,
2013-09-25 12:57:00,83.7,76.2,29.88,NE,45,2.9,8.3,78,0.00,,,0.11,WUHU216HW,2013-09-25 16:57:00,
2013-09-25 13:02:00,83.3,75.8,29.88,North,0,6.7,7.6,78,0.00,,,0.11,WUHU216HW,2013-09-25 17:02:00,
2013-09-25 13:07:00,83.2,75.6,29.88,North,0,5.6,7.6,78,0.00,,,0.11,WUHU216HW,2013-09-25 17:07:00,
2013-09-25 13:12:00,82.4,75.0,29.88,NNE,23,5.4,7.8,78,0.00,,,0.11,WUHU216HW,2013-09-25 17:12:00,
2013-09-25 13:17:00,81.9,74.4,29.88,NW,315,8.5,8.5,78,0.00,,,0.11,WUHU216HW,2013-09-25 17:17:00,
2013-09-25 13:22:00,81.5,73.7,29.88,NNW,338,6.7,8.5,77,0.01,,,0.11,WUHU216HW,2013-09-25 17:22:00,
2013-09-25 13:27:00,80.8,73.0,29.87,West,270,5.4,7.6,77,0.07,,,0.17,WUHU216HW,2013-09-25 17:27:00,
2013-09-25 13:32:00,80.1,72.3,29.88,North,0,4.7,7.6,77,0.07,,,0.18,WUHU216HW,2013-09-25 17:32:00,
2013-09-25 13:37:00,79.7,71.9,29.88,NNE,23,6.9,6.9,77,0.07,,,0.18,WUHU216HW,2013-09-25 17:37:00,
2013-09-25 13:43:00,79.2,71.4,29.88,NW,315,5.4,6.9,77,0.07,,,0.18,WUHU216HW,2013-09-25 17:43:00,
2013-09-25 13:48:00,79.0,71.6,29.88,North,0,7.2,7.2,78,0.08,,,0.18,WUHU216HW,2013-09-25 17:48:00,
2013-09-25 13:53:00,78.5,71.0,29.87,NNW,338,8.5,8.5,78,0.10,,,0.20,WUHU216HW,2013-09-25 17:53:00,
2013-09-25 13:58:00,77.8,70.3,29.87,NNE,23,3.1,8.5,78,0.13,,,0.23,WUHU216HW,2013-09-25 17:58:00,
2013-09-25 14:03:00,77.4,69.6,29.87,NW,315,2.7,6.3,77,0.15,,,0.26,WUHU216HW,2013-09-25 18:03:00,
2013-09-25 14:08:00,77.2,69.4,29.87,NE,45,3.4,5.1,77,0.16,,,0.27,WUHU216HW,2013-09-25 18:08:00,
2013-09-25 14:13:00,77.0,69.2,29.87,East,90,4.5,5.1,77,0.16,,,0.27,WUHU216HW,2013-09-25 18:13:00,
2013-09-25 14:18:00,76.3,68.6,29.87,NE,45,2.5,5.8,77,0.15,,,0.27,WUHU216HW,2013-09-25 18:18:00,
2013-09-25 14:23:00,76.1,68.4,29.86,NNE,23,1.8,5.8,77,0.10,,,0.27,WUHU216HW,2013-09-25 18:23:00,
2013-09-25 14:28:00,76.0,67.9,29.86,NNE,23,4.0,4.5,76,0.09,,,0.27,WUHU216HW,2013-09-25 18:28:00,
2013-09-25 14:33:00,76.3,68.2,29.86,NNW,338,2.9,4.5,76,0.09,,,0.27,WUHU216HW,2013-09-25 18:33:00,
2013-09-25 14:36:00,76.7,68.5,29.86,North,0,1.8,4.0,76,0.09,,,0.27,WUHU216HW,2013-09-25 18:36:00,
2013-09-25 14:38:00,76.7,68.5,29.86,North,0,1.8,4.0,76,0.09,,,0.27,WUHU216HW,2013-09-25 18:38:00,
2013-09-25 14:43:00,76.7,68.5,29.86,North,0,1.8,4.0,76,0.09,,,0.27,WUHU216HW,2013-09-25 18:43:00,
2013-09-25 15:01:00,77.4,69.2,29.86,North,0,2.5,2.5,76,0.01,,,0.27,WUHU216HW,2013-09-25 19:01:00,
2013-09-25 15:06:00,77.4,69.2,29.85,NW,315,1.3,2.5,76,0.00,,,0.27,WUHU216HW,2013-09-25 19:06:00,
2013-09-25 15:11:00,77.6,69.4,29.85,NNW,338,0.0,2.2,76,0.00,,,0.27,WUHU216HW,2013-09-25 19:11:00,
2013-09-25 15:16:00,77.8,69.6,29.85,NNW,338,0.4,0.9,76,0.00,,,0.27,WUHU216HW,2013-09-25 19:16:00,
2013-09-25 15:21:00,78.1,69.9,29.85,NNE,23,0.0,0.7,76,0.00,,,0.27,WUHU216HW,2013-09-25 19:21:00,
2013-09-25 15:26:00,78.1,69.9,29.84,NNE,23,0.0,0.4,76,0.00,,,0.27,WUHU216HW,2013-09-25 19:26:00,
2013-09-25 15:31:00,78.3,70.1,29.85,NNE,23,0.0,0.7,76,0.00,,,0.27,WUHU216HW,2013-09-25 19:31:00,
2013-09-25 15:36:00,78.5,70.3,29.85,North,0,0.0,1.1,76,0.00,,,0.27,WUHU216HW,2013-09-25 19:36:00,
2013-09-25 15:41:00,78.7,70.4,29.85,WSW,248,0.0,1.1,76,0.00,,,0.27,WUHU216HW,2013-09-25 19:41:00,
2013-09-25 15:46:00,78.8,70.6,29.85,NNW,338,0.2,0.9,76,0.00,,,0.27,WUHU216HW,2013-09-25 19:46:00,
2013-09-25 15:52:00,79.0,71.2,29.85,West,270,0.4,0.9,77,0.00,,,0.27,WUHU216HW,2013-09-25 19:52:00,
2013-09-25 15:57:00,79.2,70.9,29.85,SW,225,0.0,0.7,76,0.00,,,0.27,WUHU216HW,2013-09-25 19:57:00,
2013-09-25 16:02:00,79.4,71.1,29.85,NW,315,0.2,0.7,76,0.00,,,0.27,WUHU216HW,2013-09-25 20:02:00,
2013-09-25 16:07:00,79.6,71.3,29.85,West,270,0.4,0.4,76,0.00,,,0.27,WUHU216HW,2013-09-25 20:07:00,
2013-09-25 16:12:00,79.6,71.7,29.85,SW,225,0.0,1.1,77,0.00,,,0.27,WUHU216HW,2013-09-25 20:12:00,
2013-09-25 16:17:00,79.6,71.7,29.85,SW,225,0.2,1.1,77,0.01,,,0.28,WUHU216HW,2013-09-25 20:17:00,
2013-09-25 16:22:00,79.6,71.3,29.85,SW,225,0.0,0.2,76,0.01,,,0.28,WUHU216HW,2013-09-25 20:22:00,
2013-09-25 16:27:00,79.6,71.3,29.85,South,180,0.4,0.4,76,0.02,,,0.29,WUHU216HW,2013-09-25 20:27:00,
2013-09-25 16:32:00,79.6,71.3,29.85,South,180,0.0,0.4,76,0.02,,,0.29,WUHU216HW,2013-09-25 20:32:00,
2013-09-25 16:37:00,79.6,71.3,29.85,WSW,248,0.4,1.1,76,0.02,,,0.29,WUHU216HW,2013-09-25 20:37:00,
2013-09-25 16:42:00,79.6,71.3,29.85,West,270,0.0,1.1,76,0.02,,,0.29,WUHU216HW,2013-09-25 20:42:00,
2013-09-25 16:47:00,79.7,71.5,29.84,SSE,158,0.0,1.1,76,0.02,,,0.29,WUHU216HW,2013-09-25 20:47:00,
2013-09-25 16:52:00,79.9,71.6,29.83,SSE,158,0.7,1.8,76,0.02,,,0.29,WUHU216HW,2013-09-25 20:52:00,
2013-09-25 16:57:00,79.9,71.6,29.82,SSE,158,1.6,2.5,76,0.02,,,0.29,WUHU216HW,2013-09-25 20:57:00,
2013-09-25 17:03:00,79.9,71.6,29.82,South,180,0.9,5.8,76,0.02,,,0.29,WUHU216HW,2013-09-25 21:03:00,
2013-09-25 17:08:00,80.1,71.8,29.81,SE,135,2.2,5.8,76,0.02,,,0.29,WUHU216HW,2013-09-25 21:08:00,
2013-09-25 17:13:00,80.1,72.3,29.81,SE,135,1.8,3.4,77,0.02,,,0.29,WUHU216HW,2013-09-25 21:13:00,
2013-09-25 17:18:00,80.1,72.3,29.82,SSE,158,0.9,3.4,77,0.01,,,0.29,WUHU216HW,2013-09-25 21:18:00,
2013-09-25 17:23:00,80.3,72.5,29.81,SW,225,0.4,1.1,77,0.00,,,0.29,WUHU216HW,2013-09-25 21:23:00,
2013-09-25 17:28:00,80.3,72.5,29.81,SSE,158,0.0,0.9,77,0.00,,,0.29,WUHU216HW,2013-09-25 21:28:00,
2013-09-25 17:33:00,80.3,72.5,29.81,SW,225,0.4,0.9,77,0.00,,,0.29,WUHU216HW,2013-09-25 21:33:00,
2013-09-25 17:38:00,80.3,72.5,29.81,SSE,158,0.0,1.1,77,0.00,,,0.29,WUHU216HW,2013-09-25 21:38:00,
2013-09-25 17:43:00,80.3,72.5,29.81,SSW,203,0.2,1.1,77,0.00,,,0.29,WUHU216HW,2013-09-25 21:43:00,
2013-09-25 17:48:00,80.5,72.6,29.81,South,180,0.7,0.9,77,0.00,,,0.29,WUHU216HW,2013-09-25 21:48:00,
2013-09-25 17:53:00,80.5,72.6,29.81,SW,225,0.2,1.8,77,0.00,,,0.29,WUHU216HW,2013-09-25 21:53:00,
2013-09-25 17:58:00,80.6,72.8,29.81,SSW,203,0.4,2.0,77,0.00,,,0.29,WUHU216HW,2013-09-25 21:58:00,
2013-09-25 18:03:00,80.6,72.8,29.81,South,180,0.9,2.0,77,0.00,,,0.29,WUHU216HW,2013-09-25 22:03:00,
2013-09-25 18:08:00,80.5,72.6,29.81,SSE,158,2.5,2.5,77,0.00,,,0.29,WUHU216HW,2013-09-25 22:08:00,
2013-09-25 18:13:00,80.6,72.8,29.81,SSW,203,0.4,2.5,77,0.00,,,0.29,WUHU216HW,2013-09-25 22:13:00,
2013-09-25 18:19:00,80.6,72.8,29.80,South,180,0.0,1.6,77,0.00,,,0.29,WUHU216HW,2013-09-25 22:19:00,
2013-09-25 18:24:00,80.5,72.6,29.80,South,180,0.9,1.3,77,0.00,,,0.29,WUHU216HW,2013-09-25 22:24:00,
2013-09-25 18:29:00,80.5,72.6,29.79,SSE,158,0.4,1.3,77,0.00,,,0.29,WUHU216HW,2013-09-25 22:29:00,
2013-09-25 18:34:00,80.5,72.6,29.78,SSE,158,2.0,2.0,77,0.00,,,0.29,WUHU216HW,2013-09-25 22:34:00,
2013-09-25 18:39:00,80.5,72.6,29.79,SSE,158,0.2,2.0,77,0.00,,,0.29,WUHU216HW,2013-09-25 22:39:00,
2013-09-25 18:44:00,80.3,72.5,29.79,South,180,2.7,2.7,77,0.00,,,0.29,WUHU216HW,2013-09-25 22:44:00,
2013-09-25 18:49:00,80.3,72.5,29.78,SE,135,1.8,2.7,77,0.00,,,0.29,WUHU216HW,2013-09-25 22:49:00,
2013-09-25 18:54:00,80.3,72.5,29.78,SSE,158,1.1,2.5,77,0.00,,,0.29,WUHU216HW,2013-09-25 22:54:00,
2013-09-25 18:59:00,80.1,72.3,29.78,ESE,113,1.6,2.5,77,0.00,,,0.29,WUHU216HW,2013-09-25 22:59:00,
2013-09-25 19:04:00,80.3,72.0,29.79,ESE,113,1.3,2.0,76,0.00,,,0.29,WUHU216HW,2013-09-25 23:04:00,
2013-09-25 19:09:00,80.3,72.0,29.80,SE,135,0.0,1.3,76,0.00,,,0.29,WUHU216HW,2013-09-25 23:09:00,
2013-09-25 19:14:00,80.3,72.0,29.80,NE,45,0.4,0.9,76,0.00,,,0.29,WUHU216HW,2013-09-25 23:14:00,
2013-09-25 19:20:00,79.9,71.6,29.80,North,0,1.3,1.3,76,0.00,,,0.29,WUHU216HW,2013-09-25 23:20:00,
2013-09-25 19:25:00,79.9,71.6,29.81,NNW,338,0.2,2.2,76,0.00,,,0.29,WUHU216HW,2013-09-25 23:25:00,
2013-09-25 19:30:00,79.9,71.3,29.81,North,0,0.0,2.2,75,0.00,,,0.29,WUHU216HW,2013-09-25 23:30:00,
2013-09-25 19:35:00,79.9,71.3,29.81,NW,315,0.0,1.1,75,0.00,,,0.29,WUHU216HW,2013-09-25 23:35:00,
2013-09-25 19:40:00,79.9,71.3,29.81,NW,315,0.0,0.0,75,0.00,,,0.29,WUHU216HW,2013-09-25 23:40:00,
2013-09-25 19:45:00,79.9,71.3,29.82,NW,315,0.9,0.9,75,0.00,,,0.29,WUHU216HW,2013-09-25 23:45:00,
2013-09-25 19:50:00,79.9,71.3,29.82,NNW,338,1.1,1.1,75,0.00,,,0.29,WUHU216HW,2013-09-25 23:50:00,
2013-09-25 19:55:00,79.9,71.3,29.83,North,0,0.7,1.1,75,0.00,,,0.29,WUHU216HW,2013-09-25 23:55:00,
2013-09-25 20:00:00,79.9,71.3,29.83,NNW,338,4.7,4.7,75,0.00,,,0.29,WUHU216HW,2013-09-26 00:00:00,
2013-09-25 20:07:00,79.7,71.1,29.83,ENE,68,1.1,4.7,75,0.00,,,0.29,WUHU216HW,2013-09-26 00:07:00,
2013-09-25 20:12:00,79.6,70.9,29.83,NNE,23,1.1,2.9,75,0.00,,,0.29,WUHU216HW,2013-09-26 00:12:00,
2013-09-25 20:17:00,79.6,70.9,29.83,NE,45,2.0,2.9,75,0.00,,,0.29,WUHU216HW,2013-09-26 00:17:00,
2013-09-25 20:22:00,79.4,70.7,29.83,NE,45,1.1,2.0,75,0.00,,,0.29,WUHU216HW,2013-09-26 00:22:00,
2013-09-25 20:27:00,79.4,70.7,29.83,NE,45,0.0,1.6,75,0.00,,,0.29,WUHU216HW,2013-09-26 00:27:00,
2013-09-25 20:32:00,79.6,70.6,29.83,NNE,23,0.0,1.1,74,0.00,,,0.29,WUHU216HW,2013-09-26 00:32:00,
2013-09-25 20:37:00,79.6,70.6,29.84,ENE,68,0.4,0.4,74,0.00,,,0.29,WUHU216HW,2013-09-26 00:37:00,
2013-09-25 20:43:00,79.6,70.6,29.84,ENE,68,0.0,0.4,74,0.00,,,0.29,WUHU216HW,2013-09-26 00:43:00,
2013-09-25 20:48:00,79.6,70.6,29.84,East,90,0.4,0.7,74,0.00,,,0.29,WUHU216HW,2013-09-26 00:48:00,
2013-09-25 20:53:00,79.6,70.6,29.84,ESE,113,0.9,0.9,74,0.00,,,0.29,WUHU216HW,2013-09-26 00:53:00,
2013-09-25 20:58:00,79.4,70.4,29.84,SSE,158,0.2,0.9,74,0.00,,,0.29,WUHU216HW,2013-09-26 00:58:00,
2013-09-25 21:03:00,79.4,70.4,29.84,SSE,158,0.2,1.3,74,0.00,,,0.29,WUHU216HW,2013-09-26 01:03:00,
2013-09-25 21:09:00,79.2,70.2,29.84,SSE,158,0.0,1.3,74,0.00,,,0.29,WUHU216HW,2013-09-26 01:09:00,
2013-09-25 21:14:00,79.2,70.2,29.84,SSE,158,0.0,0.2,74,0.00,,,0.29,WUHU216HW,2013-09-26 01:14:00,
2013-09-25 21:19:00,79.2,70.2,29.84,SSE,158,0.2,0.4,74,0.00,,,0.29,WUHU216HW,2013-09-26 01:19:00,
2013-09-25 21:24:00,79.0,70.0,29.84,SSE,158,0.0,0.4,74,0.00,,,0.29,WUHU216HW,2013-09-26 01:24:00,
2013-09-25 21:29:00,79.2,70.2,29.85,SSE,158,0.0,0.4,74,0.00,,,0.29,WUHU216HW,2013-09-26 01:29:00,
2013-09-25 21:34:00,79.0,70.0,29.85,SSE,158,0.0,0.0,74,0.00,,,0.29,WUHU216HW,2013-09-26 01:34:00,
2013-09-25 21:39:00,79.0,70.0,29.84,SSE,158,0.0,0.0,74,0.00,,,0.29,WUHU216HW,2013-09-26 01:39:00,
2013-09-25 21:44:00,79.0,70.0,29.84,SSW,203,0.0,0.2,74,0.00,,,0.29,WUHU216HW,2013-09-26 01:44:00,
2013-09-25 21:49:00,78.8,69.9,29.85,West,270,0.0,0.2,74,0.00,,,0.29,WUHU216HW,2013-09-26 01:49:00,
2013-09-25 21:54:00,79.0,70.0,29.84,NW,315,0.0,0.2,74,0.00,,,0.29,WUHU216HW,2013-09-26 01:54:00,
2013-09-25 22:00:00,78.8,69.9,29.84,NW,315,0.0,0.2,74,0.00,,,0.29,WUHU216HW,2013-09-26 02:00:00,
2013-09-25 22:05:00,78.8,69.9,29.84,NW,315,0.0,0.2,74,0.00,,,0.29,WUHU216HW,2013-09-26 02:05:00,
2013-09-25 22:10:00,78.7,69.7,29.84,NW,315,0.0,0.0,74,0.00,,,0.29,WUHU216HW,2013-09-26 02:10:00,
2013-09-25 22:15:00,78.7,69.7,29.85,NW,315,0.0,0.0,74,0.00,,,0.29,WUHU216HW,2013-09-26 02:15:00,
2013-09-25 22:20:00,78.7,69.7,29.84,NW,315,0.0,0.0,74,0.00,,,0.29,WUHU216HW,2013-09-26 02:20:00,
2013-09-25 22:25:00,78.5,69.5,29.84,NW,315,0.0,0.0,74,0.00,,,0.29,WUHU216HW,2013-09-26 02:25:00,
2013-09-25 22:30:00,78.5,69.5,29.84,NW,315,0.0,0.0,74,0.00,,,0.29,WUHU216HW,2013-09-26 02:30:00,
2013-09-25 22:33:00,78.3,69.3,29.84,NW,315,0.0,0.0,74,0.00,,,0.29,WUHU216HW,2013-09-26 02:33:00,
2013-09-25 22:35:00,78.3,69.3,29.84,NW,315,0.0,0.0,74,0.00,,,0.29,WUHU216HW,2013-09-26 02:35:00,
2013-09-25 22:40:00,78.3,69.3,29.84,NW,315,0.0,0.0,74,0.00,,,0.29,WUHU216HW,2013-09-26 02:40:00,
2013-09-25 23:01:00,78.1,69.1,29.84,NW,315,0.0,0.0,74,0.00,,,0.29,WUHU216HW,2013-09-26 03:01:00,
2013-09-25 23:06:00,78.1,69.1,29.84,NW,315,0.0,0.0,74,0.00,,,0.29,WUHU216HW,2013-09-26 03:06:00,
2013-09-25 23:11:00,78.1,69.1,29.84,NW,315,0.0,0.0,74,0.00,,,0.29,WUHU216HW,2013-09-26 03:11:00,
2013-09-25 23:16:00,78.1,69.1,29.84,NW,315,0.0,0.0,74,0.00,,,0.29,WUHU216HW,2013-09-26 03:16:00,
2013-09-25 23:21:00,77.9,68.9,29.84,West,270,0.2,0.2,74,0.00,,,0.29,WUHU216HW,2013-09-26 03:21:00,
2013-09-25 23:27:00,77.9,68.9,29.84,West,270,0.0,0.2,74,0.00,,,0.29,WUHU216HW,2013-09-26 03:27:00,
2013-09-25 23:32:00,77.8,68.8,29.84,West,270,0.0,0.0,74,0.00,,,0.29,WUHU216HW,2013-09-26 03:32:00,
2013-09-25 23:37:00,77.8,69.2,29.84,West,270,0.0,0.0,75,0.00,,,0.29,WUHU216HW,2013-09-26 03:37:00,
2013-09-25 23:42:00,77.8,69.2,29.84,West,270,0.0,0.0,75,0.00,,,0.29,WUHU216HW,2013-09-26 03:42:00,
2013-09-25 23:47:00,77.8,69.2,29.84,West,270,0.0,0.0,75,0.00,,,0.29,WUHU216HW,2013-09-26 03:47:00,
2013-09-25 23:52:00,77.8,69.2,29.84,West,270,0.2,0.2,75,0.00,,,0.29,WUHU216HW,2013-09-26 03:52:00,
2013-09-25 23:57:00,77.8,69.2,29.84,West,270,0.4,0.4,75,0.00,,,0.29,WUHU216HW,2013-09-26 03:57:00,